When you browse on this site, cookies collect data to enhance your experience and personalize the content and advertising you see.
Visit our Privacy Policy to learn more. By continuing to use the site, you agree to this use of cookies and data.
  • In United Kingdom
  • List of Countries
  • For 7 days
  • Water Temperature
  • Weather Map
  • Weather Widgets
  • user-avatar
    Login

    Hourly Weather Abergele

    Today, 29 May, Friday

    Time Temperature Precipitation Wind Pressure Humidity
    00:00 +13°C° 0 mm 3 mps 765 mmHg 88%
    01:00 +12°C° 0 mm 3 mps 765 mmHg 85%
    02:00 +11°C° 0 mm 3 mps 765 mmHg 83%
    03:00 +11°C° 0 mm 3 mps 765 mmHg 80%
    04:00 +11°C° 0 mm 3 mps 765 mmHg 75%
    05:00 +12°C° 0 mm 3 mps 764 mmHg 69%
    06:00 +12°C° 0 mm 3 mps 764 mmHg 63%
    07:00 +14°C° 0 mm 3 mps 764 mmHg 58%
    08:00 +17°C° 0 mm 4 mps 764 mmHg 53%
    09:00 +19°C° 0 mm 4 mps 764 mmHg 48%
    10:00 +20°C° 0 mm 4 mps 764 mmHg 48%
    11:00 +21°C° 0 mm 4 mps 764 mmHg 48%
    12:00 +22°C° 0 mm 4 mps 763 mmHg 48%
    13:00 +22°C° 0 mm 4 mps 763 mmHg 50%
    14:00 +22°C° 0 mm 4 mps 763 mmHg 51%
    15:00 +23°C° 0 mm 4 mps 762 mmHg 53%
    16:00 +22°C° 0 mm 3 mps 762 mmHg 56%
    17:00 +21°C° 0 mm 3 mps 762 mmHg 60%
    18:00 +21°C° 0 mm 3 mps 761 mmHg 64%
    19:00 +19°C° 0 mm 3 mps 761 mmHg 73%
    20:00 +17°C° 0 mm 3 mps 761 mmHg 81%
    21:00 +14°C° 0 mm 3 mps 761 mmHg 90%
    22:00 +13°C° 0 mm 3 mps 762 mmHg 91%
    23:00 +13°C° 0 mm 3 mps 762 mmHg 92%

    Tomorrow, 30 May, Saturday

    Time Temperature Precipitation Wind Pressure Humidity
    00:00 +12°C° 0 mm 3 mps 762 mmHg 93%
    01:00 +12°C° 0 mm 3 mps 762 mmHg 94%
    02:00 +11°C° 0 mm 3 mps 762 mmHg 94%
    03:00 +11°C° 0 mm 3 mps 762 mmHg 95%
    04:00 +11°C° 0 mm 3 mps 762 mmHg 92%
    05:00 +11°C° 0 mm 3 mps 762 mmHg 89%
    06:00 +12°C° 0 mm 3 mps 762 mmHg 86%
    07:00 +13°C° 0 mm 3 mps 762 mmHg 75%
    08:00 +15°C° 0 mm 4 mps 761 mmHg 63%
    09:00 +17°C° 0 mm 4 mps 761 mmHg 52%
    10:00 +18°C° 0 mm 4 mps 761 mmHg 50%
    11:00 +19°C° 0 mm 4 mps 761 mmHg 48%
    12:00 +20°C° 0 mm 4 mps 761 mmHg 47%
    13:00 +20°C° 0 mm 4 mps 761 mmHg 49%
    14:00 +21°C° 0 mm 3 mps 760 mmHg 52%
    15:00 +21°C° 0 mm 3 mps 760 mmHg 54%
    16:00 +21°C° 0 mm 3 mps 760 mmHg 58%
    17:00 +20°C° 0 mm 3 mps 760 mmHg 62%
    18:00 +20°C° 0 mm 3 mps 760 mmHg 66%
    19:00 +19°C° 0 mm 3 mps 760 mmHg 72%
    20:00 +17°C° 0 mm 4 mps 760 mmHg 79%
    21:00 +15°C° 0 mm 4 mps 761 mmHg 85%
    22:00 +14°C° 0 mm 4 mps 761 mmHg 87%
    23:00 +13°C° 0 mm 4 mps 761 mmHg 88%

    Day after tomorrow, 31 May, Sunday

    Time Temperature Precipitation Wind Pressure Humidity
    00:00 +12°C° 0 mm 4 mps 761 mmHg 89%
    01:00 +12°C° 0 mm 4 mps 761 mmHg 91%
    02:00 +11°C° 0 mm 4 mps 761 mmHg 92%
    03:00 +10°C° 0 mm 4 mps 761 mmHg 94%
    04:00 +11°C° 0 mm 3 mps 761 mmHg 91%
    05:00 +11°C° 0 mm 3 mps 761 mmHg 88%
    06:00 +12°C° 0 mm 3 mps 761 mmHg 86%
    07:00 +13°C° 0 mm 3 mps 761 mmHg 77%
    08:00 +16°C° 0 mm 3 mps 761 mmHg 69%
    09:00 +18°C° 0 mm 4 mps 761 mmHg 61%
    10:00 +19°C° 0 mm 3 mps 761 mmHg 58%
    11:00 +20°C° 0 mm 3 mps 762 mmHg 55%
    12:00 +21°C° 0 mm 3 mps 762 mmHg 52%
    13:00 +21°C° 0 mm 3 mps 761 mmHg 52%
    14:00 +21°C° 0 mm 3 mps 761 mmHg 52%
    15:00 +22°C° 0 mm 3 mps 761 mmHg 53%
    16:00 +21°C° 0 mm 3 mps 761 mmHg 57%
    17:00 +21°C° 0 mm 3 mps 761 mmHg 62%
    18:00 +20°C° 0 mm 2 mps 761 mmHg 66%
    19:00 +18°C° 0 mm 2 mps 761 mmHg 74%
    20:00 +17°C° 0 mm 2 mps 761 mmHg 81%
    21:00 +15°C° 0 mm 2 mps 761 mmHg 88%
    22:00 +14°C° 0 mm 2 mps 761 mmHg 90%
    23:00 +12°C° 0 mm 3 mps 761 mmHg 91%

    1 June, Monday

    Time Temperature Precipitation Wind Pressure Humidity
    00:00 +12°C° 0 mm 3 mps 761 mmHg 93%
    01:00 +11°C° 0 mm 3 mps 761 mmHg 93%
    02:00 +11°C° 0 mm 3 mps 761 mmHg 93%
    03:00 +11°C° 0 mm 3 mps 761 mmHg 92%
    04:00 +13°C° 0 mm 2 mps 761 mmHg 90%
    05:00 +14°C° 0 mm 2 mps 761 mmHg 88%
    06:00 +14°C° 0 mm 2 mps 761 mmHg 86%
    07:00 +16°C° 0 mm 2 mps 761 mmHg 79%
    08:00 +17°C° 0 mm 2 mps 761 mmHg 72%
    09:00 +19°C° 0 mm 2 mps 761 mmHg 65%
    10:00 +20°C° 0 mm 2 mps 760 mmHg 61%
    11:00 +20°C° 0 mm 2 mps 760 mmHg 57%
    12:00 +21°C° 0 mm 2 mps 760 mmHg 53%
    13:00 +21°C° 0 mm 2 mps 760 mmHg 53%
    14:00 +21°C° 0 mm 2 mps 760 mmHg 54%
    15:00 +21°C° 0 mm 2 mps 759 mmHg 54%
    16:00 +20°C° 0 mm 2 mps 759 mmHg 58%
    17:00 +19°C° 0 mm 2 mps 759 mmHg 61%
    18:00 +19°C° 0 mm 2 mps 758 mmHg 64%
    19:00 +17°C° 0 mm 2 mps 758 mmHg 71%
    20:00 +15°C° 0 mm 1 mps 758 mmHg 79%
    21:00 +13°C° 0 mm 1 mps 758 mmHg 86%
    22:00 +13°C° 0 mm 1 mps 758 mmHg 87%
    23:00 +12°C° 0 mm 1 mps 758 mmHg 88%

    2 June, Tuesday

    Time Temperature Precipitation Wind Pressure Humidity
    00:00 +12°C° 0 mm 1 mps 758 mmHg 88%
    01:00 +12°C° 0 mm 1 mps 757 mmHg 88%
    02:00 +11°C° 0 mm 1 mps 757 mmHg 88%
    03:00 +10°C° 0 mm 2 mps 756 mmHg 88%
    04:00 +12°C° 0 mm 1 mps 756 mmHg 85%
    05:00 +13°C° 0 mm 1 mps 756 mmHg 83%
    06:00 +14°C° 0 mm 1 mps 755 mmHg 80%
    07:00 +16°C° 0 mm 1 mps 755 mmHg 74%
    08:00 +18°C° 0 mm 1 mps 755 mmHg 68%
    09:00 +20°C° 0 mm 1 mps 755 mmHg 63%
    10:00 +20°C° 0.1 mm 1 mps 755 mmHg 63%
    11:00 +19°C° 0.1 mm 2 mps 754 mmHg 63%
    12:00 +19°C° 0.1 mm 2 mps 754 mmHg 63%
    13:00 +18°C° 0.2 mm 2 mps 753 mmHg 68%
    14:00 +17°C° 0.2 mm 3 mps 753 mmHg 73%
    15:00 +17°C° 0.2 mm 3 mps 753 mmHg 78%
    16:00 +16°C° 0.2 mm 3 mps 752 mmHg 81%
    17:00 +14°C° 0.2 mm 3 mps 752 mmHg 85%
    18:00 +13°C° 0.2 mm 3 mps 752 mmHg 89%
    19:00 +13°C° 0 mm 4 mps 752 mmHg 91%
    20:00 +12°C° 0 mm 4 mps 752 mmHg 93%
    21:00 +12°C° 0 mm 4 mps 752 mmHg 96%
    22:00 +12°C° 0.1 mm 4 mps 751 mmHg 96%
    23:00 +12°C° 0.1 mm 4 mps 751 mmHg 96%

    3 June, Wednesday

    Time Temperature Precipitation Wind Pressure Humidity
    00:00 +11°C° 0.1 mm 3 mps 751 mmHg 97%
    01:00 +12°C° 0.3 mm 4 mps 751 mmHg 97%
    02:00 +12°C° 0.3 mm 4 mps 751 mmHg 97%
    03:00 +13°C° 0.3 mm 5 mps 750 mmHg 98%
    04:00 +13°C° 0.1 mm 5 mps 750 mmHg 97%
    05:00 +13°C° 0.1 mm 5 mps 750 mmHg 97%
    06:00 +13°C° 0.1 mm 5 mps 750 mmHg 97%
    07:00 +13°C° 0.1 mm 5 mps 750 mmHg 95%
    08:00 +14°C° 0.1 mm 5 mps 751 mmHg 93%
    09:00 +15°C° 0.1 mm 5 mps 751 mmHg 91%
    10:00 +15°C° 0 mm 5 mps 751 mmHg 87%
    11:00 +16°C° 0 mm 5 mps 751 mmHg 84%
    12:00 +16°C° 0 mm 5 mps 751 mmHg 80%
    13:00 +17°C° 0.1 mm 6 mps 750 mmHg 77%
    14:00 +19°C° 0.1 mm 6 mps 750 mmHg 74%
    15:00 +20°C° 0.1 mm 7 mps 750 mmHg 70%
    16:00 +20°C° 0.1 mm 7 mps 750 mmHg 72%
    17:00 +19°C° 0.1 mm 6 mps 750 mmHg 73%
    18:00 +19°C° 0.1 mm 6 mps 750 mmHg 75%
    19:00 +16°C° 0 mm 6 mps 751 mmHg 80%
    20:00 +15°C° 0 mm 5 mps 751 mmHg 85%
    21:00 +13°C° 0 mm 4 mps 751 mmHg 90%
    22:00 +12°C° 0 mm 4 mps 751 mmHg 92%
    23:00 +12°C° 0 mm 3 mps 752 mmHg 94%
    Show more